1496408400.78,55162,20.56,74220.0,21.13,-31.11,-30.45,0,*49
1496408402.05,55163,20.56,74220.8,21.03,-30.55,-29.51,0,*45
1496408403.28,55164,20.5,74220.5,21.01,-29.45,-28.59,0,*40
1496408404.52,55165,20.56,74222.8,20.97,-28.75,-27.83,0,*45
1496408405.75,55166,20.56,74224.5,20.95,-27.71,-26.65,0,*46
1496408406.98,55167,20.5,74220.8,20.91,-27.61,-26.45,0,*40
1496408408.2,55168,20.56,74224.3,20.91,-25.61,-24.41,0,*4B
1496408409.42,55169,20.56,74222.3,20.91,-24.77,-23.53,0,*48
1496408410.64,55170,20.5,74222.5,20.91,-25.61,-24.67,0,*46
1496408411.84,55171,20.56,74222.8,20.91,-26.07,-24.97,0,*4B
1496408413.1,55172,20.5,74222.8,20.89,-26.81,-25.49,0,*4D
1496408414.32,55173,20.56,74224.3,20.85,-25.65,-24.51,0,*41
1496408415.56,55174,20.5,74220.3,20.89,-24.93,-23.85,0,*4C
1496408416.78,55175,20.5,74222.3,20.85,-25.49,-24.35,0,*4B
1496408418.05,55176,20.5,74222.3,20.85,-24.83,-23.99,0,*4E
1496408419.29,55177,20.56,74224.3,20.85,-25.29,-24.31,0,*4B
1496408420.54,55178,20.5,74220.5,20.85,-25.97,-24.97,0,*4D
1496408421.79,55179,20.56,74224.3,20.85,-23.99,-22.93,0,*46
1496408423.02,55180,20.56,74224.0,20.85,-25.49,-24.57,0,*45
1496408424.29,55181,20.56,74224.8,20.89,-23.29,-22.31,0,*4E
1496408425.53,55182,20.56,74226.5,20.89,-23.19,-22.41,0,*49
1496408426.76,55183,20.56,74226.5,20.89,-26.07,-25.39,0,*4A
1496408428.0,55184,20.56,74222.3,20.89,-23.19,-22.41,0,*4F
1496408429.23,55185,20.56,74220.0,20.89,-25.23,-24.41,0,*47
1496408430.47,55186,20.56,74222.0,20.89,-23.69,-23.13,0,*4C
1496408431.72,55187,20.56,74222.8,20.91,-23.65,-22.73,0,*4F
1496408432.97,55188,20.56,74224.3,20.91,-24.25,-23.65,0,*45
1496408434.2,55189,20.5,74224.3,20.91,-21.63,-20.99,0,*43
1496408435.42,55190,20.5,74220.5,20.93,-22.11,-21.57,0,*4C
1496408436.66,55191,20.56,74224.8,20.97,-22.31,-21.97,0,*47
1496408437.92,55192,20.5,74222.3,20.97,-22.77,-22.47,0,*48
1496408439.17,55193,20.5,74220.8,20.99,-23.33,-23.13,0,*46
1496408440.42,55194,20.56,74224.8,20.99,-24.97,-24.83,0,*46
1496408441.69,55195,20.56,74224.8,20.99,-23.23,-23.03,0,*40
1496408442.91,55196,20.56,74224.5,21.01,-22.03,-21.83,0,*4A
1496408444.14,55197,20.56,74226.5,21.03,-20.43,-20.29,0,*4E
1496408445.33,55198,20.56,74224.8,21.05,-20.43,-20.29,0,*47
1496408446.6,55199,20.56,74224.8,21.07,-21.33,-21.33,0,*48
1496408447.85,55200,20.5,74220.5,21.11,-20.93,-20.99,0,*46
1496408449.11,55201,20.56,74224.5,21.11,-21.73,-21.83,0,*42
1496408450.36,55202,20.5,74220.8,21.13,-21.53,-21.67,0,*4B
1496408451.64,55203,20.56,74226.3,21.15,-21.53,-21.83,0,*46
1496408452.86,55204,20.5,74222.5,21.15,-21.47,-21.77,0,*4F
1496408454.08,55205,20.56,74224.5,21.15,-20.73,-20.93,0,*43
1496408455.35,55206,20.56,74222.5,21.19,-20.15,-20.35,0,*40
1496408456.62,55207,20.56,74224.8,21.23,-21.23,-21.53,0,*4D
1496408457.84,55208,20.56,74222.5,21.23,-21.63,-22.03,0,*40
1496408459.09,55209,20.56,74226.3,21.25,-20.89,-21.27,0,*47
1496408460.37,55210,20.56,74226.5,21.27,-22.73,-23.23,0,*4C
1496408461.63,55211,20.56,74224.3,21.27,-20.83,-21.13,0,*41
1496408462.87,55212,20.5,74222.5,21.27,-20.39,-20.73,0,*44
1496408464.08,55213,20.56,74226.5,21.29,-20.05,-20.43,0,*47
1496408465.34,55214,20.56,74226.5,21.31,-20.73,-21.23,0,*4F
1496408466.58,55215,20.56,74226.0,21.31,-20.25,-20.63,0,*48
1496408467.8,55216,20.56,74224.8,21.37,-19.95,-20.39,0,*43
1496408469.04,55217,20.56,74226.8,21.41,-19.57,-19.99,0,*4D
1496408470.24,55218,20.56,74224.5,21.41,-21.09,-21.73,0,*4D
1496408471.48,55219,20.56,74224.3,21.41,-22.11,-22.47,0,*42
1496408472.72,55220,20.56,74224.3,21.43,-21.47,-22.03,0,*4A
1496408473.94,55221,20.56,74224.0,21.45,-20.39,-20.89,0,*45
1496408475.18,55222,20.56,74226.0,21.45,-20.43,-20.99,0,*4A
1496408476.41,55223,20.56,74226.3,21.49,-20.99,-21.47,0,*42
1496408477.65,55224,20.56,74226.5,21.47,-21.77,-22.37,0,*4E
1496408478.91,55225,20.56,74224.3,21.49,-20.15,-20.53,0,*44
1496408480.15,55226,20.56,74226.3,21.51,-20.43,-20.93,0,*41
1496408481.36,55227,20.56,74228.3,21.53,-19.75,-20.09,0,*4E
1496408482.59,55228,20.56,74228.8,21.57,-20.05,-20.63,0,*44
1496408483.85,55229,20.56,74224.8,21.57,-21.23,-21.47,0,*47
1496408485.06,55230,20.56,74226.0,21.59,-20.93,-21.47,0,*4B
1496408486.29,55231,20.56,74224.0,21.59,-21.43,-21.87,0,*4A
1496408487.5,55232,20.56,74224.0,21.59,-20.39,-20.93,0,*41
1496408488.71,55233,20.56,74224.3,21.63,-20.73,-21.17,0,*4A
1496408489.93,55234,20.56,74224.3,21.63,-21.39,-21.93,0,*4E
1496408491.15,55235,20.56,74228.8,21.65,-19.75,-20.05,0,*44
1496408492.36,55236,20.56,74228.3,21.67,-19.71,-20.09,0,*4D
1496408493.62,55237,20.56,74224.8,21.67,-20.49,-20.83,0,*4F
1496408494.88,55238,20.56,74228.8,21.69,-21.27,-22.07,0,*49
1496408496.12,55239,20.56,74228.8,21.71,-21.53,-21.93,0,*4C
1496408497.33,55240,20.56,74224.3,21.71,-20.39,-20.69,0,*4B
1496408498.56,55241,20.56,74230.0,21.71,-19.65,-19.99,0,*4C
1496408499.79,55242,20.56,74228.8,21.75,-20.53,-20.93,0,*44
1496408501.02,55243,20.56,74228.3,21.79,-20.35,-20.59,0,*4F
1496408502.25,55244,20.56,74228.0,21.79,-21.43,-21.83,0,*4E
1496408503.48,55245,20.56,74228.0,21.81,-22.11,-22.57,0,*46
1496408504.72,55246,20.56,74228.0,21.79,-22.37,-22.77,0,*44
1496408505.92,55247,20.56,74226.3,21.79,-21.73,-22.07,0,*41
1496408507.15,55248,20.56,74224.3,21.79,-23.19,-23.89,0,*47
1496408508.36,55249,20.56,74226.0,21.75,-24.61,-25.13,0,*47
1496408509.6,55250,20.56,74230.5,21.75,-24.47,-25.03,0,*4A
1496408510.82,55251,20.56,74228.5,21.73,-25.23,-25.65,0,*4E
1496408512.08,55252,20.56,74228.8,21.69,-22.97,-23.33,0,*4B
1496408513.31,55253,20.56,74228.5,21.71,-24.87,-25.35,0,*44
1496408514.53,55254,20.56,74228.3,21.71,-23.13,-23.43,0,*4E
1496408515.76,55255,20.56,74228.0,21.71,-22.47,-22.87,0,*46
1496408516.99,55256,20.56,74224.5,21.71,-22.41,-22.73,0,*48
1496408518.23,55257,20.56,74224.0,21.71,-21.53,-21.77,0,*4E
1496408519.48,55258,20.56,74226.0,21.73,-21.47,-21.53,0,*40
1496408520.73,55259,20.56,74226.5,21.73,-21.39,-21.53,0,*48
1496408522.02,55260,20.56,74230.0,21.73,-24.41,-24.87,0,*44
1496408523.26,55261,20.56,74224.3,21.71,-24.83,-25.09,0,*4E
1496408524.49,55262,20.56,74228.3,21.71,-24.83,-25.23,0,*45
1496408525.75,55263,20.56,74226.3,21.69,-23.49,-23.75,0,*49
1496408526.99,55264,20.56,74228.3,21.69,-22.67,-22.97,0,*4E
1496408528.25,55265,20.56,74228.8,21.69,-24.25,-24.57,0,*45
1496408529.47,55266,20.56,74228.8,21.67,-23.69,-23.39,0,*48
1496408530.7,55267,20.56,74224.8,21.67,-23.13,-23.53,0,*48
1496408531.93,55268,20.56,74224.8,21.67,-24.05,-24.41,0,*43
1496408533.16,55269,20.56,74224.5,21.67,-22.87,-23.19,0,*44
1496408534.43,55270,20.56,74230.5,21.65,-23.23,-23.53,0,*4F
1496408535.69,55271,20.56,74230.5,21.67,-24.21,-24.21,0,*4B
1496408536.92,55272,20.56,74230.5,21.65,-22.63,-22.87,0,*40
1496408538.15,55273,20.56,74228.0,21.67,-23.53,-23.79,0,*41
1496408539.4,55274,20.56,74226.0,21.65,-22.31,-22.57,0,*4C
1496408540.6,55275,20.56,74226.3,21.67,-22.07,-22.11,0,*48
1496408541.82,55276,20.56,74228.5,21.67,-21.57,-21.73,0,*4A
1496408543.02,55277,20.56,74226.5,21.67,-22.07,-22.27,0,*4F
1496408544.26,55278,20.56,74224.8,21.71,-21.53,-21.77,0,*43
1496408545.52,55279,20.56,74228.3,21.71,-22.47,-22.77,0,*47
1496408546.75,55280,20.56,74226.8,21.73,-21.77,-22.03,0,*40
1496408548.01,55281,20.56,74226.3,21.73,-20.99,-21.17,0,*46
1496408549.27,55282,20.56,74224.8,21.73,-21.09,-21.23,0,*4A
1496408550.47,55283,20.56,74226.0,21.75,-22.37,-22.67,0,*40
1496408551.72,55284,20.56,74228.0,21.75,-23.03,-23.33,0,*41
1496408552.95,55285,20.56,74226.3,21.73,-23.43,-23.75,0,*40
1496408554.18,55286,20.56,74228.3,21.79,-22.07,-22.21,0,*48
1496408555.41,55287,20.56,74226.3,21.75,-20.49,-20.69,0,*43
1496408556.64,55288,20.56,74226.8,21.79,-21.43,-21.53,0,*43
1496408557.9,55289,20.56,74228.0,21.81,-20.59,-20.53,0,*4E
1496408559.12,55290,20.56,74228.5,21.81,-20.25,-20.29,0,*40
1496408560.4,55291,20.56,74224.0,21.85,-20.35,-20.49,0,*42
1496408561.65,55292,20.56,74226.3,21.85,-21.33,-21.47,0,*49
1496408562.88,55293,20.56,74226.5,21.85,-20.25,-20.25,0,*4B
1496408564.13,55294,20.56,74224.0,21.89,-20.15,-20.19,0,*4C
1496408565.37,55295,20.56,74230.0,21.91,-19.95,-19.95,0,*48
1496408566.62,55296,20.56,74226.8,21.93,-20.19,-20.35,0,*47
1496408567.88,55297,20.56,74228.8,21.93,-20.99,-21.03,0,*4A
1496408569.1,55298,20.56,74224.5,21.97,-20.15,-20.29,0,*4C
1496408570.37,55299,20.56,74224.8,21.97,-19.61,-19.57,0,*47
1496408571.65,55300,20.56,74224.5,21.99,-19.23,-19.31,0,*4E
1496408572.88,55301,20.56,74230.5,22.03,-20.69,-20.73,0,*47
1496408574.13,55302,20.56,74230.3,22.07,-20.99,-21.09,0,*43
1496408575.42,55303,20.56,74228.8,22.07,-20.49,-20.49,0,*4A
1496408576.63,55304,20.56,74228.3,22.09,-20.59,-20.63,0,*4A
1496408577.84,55305,20.56,74226.3,22.09,-20.73,-20.63,0,*43
1496408579.1,55306,20.56,74228.0,22.11,-21.87,-22.03,0,*47
1496408580.36,55307,20.56,74224.8,22.11,-22.67,-22.77,0,*48
1496408581.58,55308,20.56,74226.3,22.09,-21.97,-22.11,0,*42
1496408582.81,55309,20.56,74226.0,22.11,-21.39,-21.39,0,*47
1496408584.05,55310,20.56,74226.0,22.11,-20.89,-20.73,0,*4A
1496408585.3,55311,20.56,74224.3,22.13,-20.83,-20.83,0,*4C
1496408586.51,55312,20.56,74228.5,22.13,-22.07,-22.21,0,*4B
1496408587.74,55313,20.56,74226.0,22.13,-21.63,-21.67,0,*4A
1496408588.96,55314,20.56,74228.0,22.13,-22.93,-23.03,0,*41
1496408590.22,55315,20.56,74228.0,22.13,-22.47,-22.47,0,*48
1496408591.44,55316,20.56,74228.3,22.13,-23.29,-23.39,0,*4A
1496408592.68,55317,20.56,74226.8,22.13,-23.99,-24.15,0,*49
1496408593.93,55318,20.56,74224.8,22.13,-23.33,-23.53,0,*43
1496408595.22,55319,20.56,74228.0,22.11,-24.11,-24.21,0,*45
1496408596.42,55320,20.56,74230.3,22.09,-24.61,-24.57,0,*40
1496408597.65,55321,20.56,74230.3,22.11,-23.13,-22.97,0,*40
1496408598.93,55322,20.56,74230.0,22.07,-23.85,-23.95,0,*48
1496408600.21,55323,20.56,74230.5,22.07,-23.29,-23.19,0,*4B
1496408601.43,55324,20.56,74228.8,22.07,-23.13,-23.13,0,*4F
1496408602.71,55325,20.56,74226.8,22.07,-23.65,-23.69,0,*42
1496408603.97,55326,20.56,74226.8,22.05,-24.71,-24.83,0,*42
1496408605.23,55327,20.56,74224.8,22.03,-26.33,-26.61,0,*4F
1496408606.46,55328,20.56,74224.0,21.99,-27.51,-27.71,0,*45
1496408607.72,55329,20.56,74224.8,21.95,-28.53,-28.63,0,*49
1496408608.98,55330,20.56,74224.8,21.91,-28.21,-28.37,0,*41
1496408610.23,55331,20.56,74226.3,21.87,-27.83,-28.09,0,*4D
1496408611.47,55332,20.56,74226.3,21.85,-24.47,-24.31,0,*40
1496408612.75,55333,20.56,74224.8,21.85,-23.65,-23.23,0,*42
1496408613.96,55334,20.56,74224.5,21.83,-22.97,-22.97,0,*41
1496408615.24,55335,20.56,74226.8,21.85,-23.99,-23.99,0,*46
1496408616.49,55336,20.56,74222.0,21.85,-22.27,-22.21,0,*43
1496408617.74,55337,20.56,74224.5,21.85,-22.93,-22.73,0,*4A
1496408618.99,55338,20.56,74226.8,21.85,-23.89,-23.85,0,*47
1496408620.27,55339,20.56,74226.8,21.85,-24.15,-23.99,0,*49
1496408621.5,55340,20.56,74224.0,21.85,-24.77,-24.47,0,*47
1496408622.73,55341,20.56,74226.0,21.85,-22.37,-22.27,0,*44
1496408623.96,55342,20.56,74224.5,21.87,-22.53,-22.21,0,*41
1496408625.21,55343,20.56,74224.3,21.87,-21.33,-20.83,0,*4F
1496408626.42,55344,20.56,74226.3,21.89,-20.93,-20.43,0,*41
1496408627.65,55345,20.56,74222.3,21.91,-21.47,-21.09,0,*4E
1496408628.85,55346,20.63,74228.5,21.93,-21.77,-21.43,0,*42
1496408630.08,55347,20.56,74226.3,21.93,-22.73,-22.41,0,*45
1496408631.3,55348,20.56,74224.8,21.93,-25.45,-24.97,0,*45
1496408632.5,55349,20.56,74222.8,21.93,-23.39,-22.87,0,*4E
1496408633.78,55350,20.56,74222.5,21.91,-24.41,-24.41,0,*40
1496408635.06,55351,20.56,74222.5,21.91,-24.87,-24.67,0,*4F
1496408636.25,55352,20.56,74226.0,21.89,-24.93,-24.57,0,*43
1496408637.51,55353,20.56,74224.5,21.87,-23.49,-23.19,0,*41
1496408638.72,55354,20.56,74222.8,21.87,-26.65,-26.49,0,*4D
1496408639.95,55355,20.56,74224.0,21.83,-28.53,-28.43,0,*47
1496408641.18,55356,20.56,74226.0,21.79,-28.05,-27.89,0,*4B
1496408642.41,55357,20.56,74224.3,21.73,-27.03,-26.87,0,*46
1496408643.7,55358,20.56,74222.5,21.69,-28.59,-28.25,0,*44
1496408644.98,55359,20.56,74226.5,21.65,-29.51,-28.75,0,*45
1496408646.25,55360,20.56,74226.5,21.61,-27.19,-26.93,0,*4F
1496408647.51,55361,20.56,74226.0,21.59,-28.79,-28.59,0,*44
1496408648.74,55362,20.56,74226.0,21.53,-29.07,-29.01,0,*49
1496408649.97,55363,20.56,74222.8,21.49,-28.97,-28.75,0,*49
1496408651.25,55364,20.56,74224.8,21.43,-30.01,-29.73,0,*45
1496408652.53,55365,20.56,74222.8,21.39,-31.95,-31.73,0,*4C
1496408653.76,55366,20.56,74226.0,21.31,-30.33,-30.11,0,*4F
1496408654.98,55367,20.56,74226.5,21.25,-31.79,-31.29,0,*4E
1496408656.19,55368,20.56,74224.3,21.21,-30.55,-30.33,0,*40
1496408657.44,55369,20.56,74226.0,21.17,-30.55,-30.17,0,*42
1496408658.63,55370,20.56,74226.5,21.13,-30.45,-30.27,0,*4C
1496408659.88,55371,20.56,74224.0,21.07,-31.05,-30.73,0,*4C
1496408661.12,55372,20.56,74224.8,21.03,-29.07,-28.75,0,*4F
1496408662.34,55373,20.56,74224.5,21.01,-28.09,-27.77,0,*4E
1496408663.56,55374,20.56,74226.5,20.97,-27.13,-26.97,0,*4C
1496408664.76,55375,20.56,74224.8,20.97,-25.49,-24.97,0,*42
1496408665.96,55376,20.63,74224.5,20.97,-25.65,-25.13,0,*42
1496408667.19,55377,20.56,74224.0,20.95,-25.65,-25.13,0,*41
1496408668.44,55378,20.56,74226.3,20.97,-26.13,-25.71,0,*4A
1496408669.73,55379,20.56,74226.8,20.95,-24.83,-24.21,0,*46
1496408670.99,55380,20.56,74222.0,20.95,-25.29,-24.67,0,*43
1496408672.22,55381,20.56,74226.5,20.97,-24.35,-23.85,0,*47
1496408673.48,55382,20.56,74226.0,20.97,-23.85,-23.23,0,*44
1496408674.72,55383,20.56,74220.5,20.99,-23.65,-22.83,0,*4E
1496408675.95,55384,20.56,74220.8,21.01,-22.53,-21.57,0,*47
1496408677.17,55385,20.56,74224.0,21.01,-23.29,-22.63,0,*4E
1496408678.4,55386,20.56,74226.8,21.05,-22.77,-21.93,0,*4F
1496408679.65,55387,20.56,74224.8,21.07,-21.93,-21.03,0,*4C
1496408680.89,55388,20.56,74224.8,21.07,-23.03,-22.11,0,*48
1496408682.17,55389,20.56,74220.5,21.11,-23.33,-22.47,0,*4E
1496408683.43,55390,20.56,74226.5,21.11,-22.17,-21.39,0,*4B
1496408684.63,55391,20.56,74220.8,21.13,-21.93,-21.17,0,*4B
1496408685.9,55392,20.56,74226.0,21.19,-21.67,-20.79,0,*40
1496408687.11,55393,20.56,74224.0,21.17,-21.73,-20.89,0,*45
1496408688.37,55394,20.56,74222.3,21.21,-21.87,-21.23,0,*4D
1496408689.55,55395,20.56,74222.5,21.21,-22.63,-21.73,0,*40
1496408690.78,55396,20.56,74220.8,21.25,-22.73,-22.07,0,*46
1496408692.07,55397,20.56,74220.8,21.27,-24.83,-24.21,0,*4E
1496408693.35,55398,20.63,74228.0,21.23,-26.81,-26.17,0,*42
1496408694.59,55399,20.56,74222.3,21.21,-24.87,-23.99,0,*46
1496408695.8,55400,20.56,74224.3,21.21,-24.47,-23.75,0,*4F
1496408697.01,55401,20.56,74226.0,21.21,-25.09,-24.41,0,*45
1496408698.23,55402,20.56,74226.0,21.21,-26.07,-25.45,0,*4E
1496408699.46,55403,20.63,74224.5,21.19,-25.87,-25.09,0,*47
1496408700.73,55404,20.63,74226.8,21.19,-24.11,-23.19,0,*49
1496408701.95,55405,20.56,74224.0,21.17,-23.03,-22.11,0,*4B
1496408703.18,55406,20.56,74224.8,21.21,-22.53,-21.83,0,*41
1496408704.41,55407,20.63,74224.8,21.23,-23.75,-22.83,0,*44
1496408705.64,55408,20.56,74224.5,21.23,-22.93,-22.27,0,*4C
1496408706.87,55409,20.63,74224.8,21.25,-23.19,-22.37,0,*49
1496408708.1,55410,20.56,74222.3,21.25,-22.21,-21.43,0,*4B
1496408709.34,55411,20.63,74226.5,21.27,-23.09,-22.11,0,*47
1496408710.57,55412,20.63,74224.0,21.29,-22.87,-22.21,0,*4E
1496408711.8,55413,20.56,74224.3,21.35,-22.27,-21.43,0,*4F
1496408713.03,55414,20.63,74224.3,21.35,-23.39,-22.57,0,*40
1496408714.32,55415,20.63,74226.8,21.31,-23.95,-23.23,0,*41
1496408715.53,55416,20.56,74226.3,21.37,-23.39,-22.63,0,*47
1496408716.77,55417,20.56,74224.0,21.37,-23.49,-22.53,0,*42
1496408718.0,55418,20.63,74226.5,21.37,-23.99,-23.09,0,*4E
1496408719.24,55419,20.63,74226.5,21.37,-24.21,-23.39,0,*48
1496408720.51,55420,20.63,74224.3,21.37,-24.15,-23.23,0,*4E
1496408721.74,55421,20.63,74226.3,21.37,-24.83,-24.05,0,*43
1496408722.98,55422,20.63,74226.5,21.37,-24.51,-23.65,0,*4E
1496408724.25,55423,20.56,74220.5,21.37,-24.21,-23.33,0,*4B
1496408725.5,55424,20.63,74226.5,21.35,-22.63,-21.67,0,*4D
1496408726.72,55425,20.63,74224.8,21.37,-22.53,-21.63,0,*49
1496408727.98,55426,20.63,74226.5,21.37,-22.77,-21.83,0,*42
1496408729.22,55427,20.63,74228.3,21.41,-21.57,-20.63,0,*4C
1496408730.45,55428,20.63,74224.0,21.41,-21.97,-21.09,0,*42
1496408731.66,55429,20.63,74224.3,21.45,-22.41,-21.43,0,*41
1496408732.89,55430,20.63,74226.0,21.45,-22.21,-21.17,0,*4E
1496408734.15,55431,20.63,74224.3,21.45,-23.19,-22.21,0,*43
1496408735.44,55432,20.63,74226.5,21.47,-24.83,-23.95,0,*48
1496408736.73,55433,20.63,74226.3,21.43,-25.03,-24.21,0,*4C
1496408737.97,55434,20.56,74220.5,21.45,-24.31,-23.49,0,*44
1496408739.21,55435,20.63,74224.8,21.45,-23.19,-22.11,0,*44
1496408740.46,55436,20.63,74224.5,21.45,-23.49,-22.73,0,*46
1496408741.73,55437,20.56,74222.8,21.45,-23.33,-22.47,0,*4D
1496408742.97,55438,20.56,74222.3,21.45,-24.51,-23.69,0,*4C
1496408744.23,55439,20.63,74228.0,21.45,-23.99,-23.23,0,*40
1496408745.47,55440,20.63,74224.3,21.45,-23.39,-22.47,0,*47
1496408746.73,55441,20.63,74224.5,21.43,-23.95,-23.09,0,*4D
1496408747.99,55442,20.63,74224.0,21.45,-22.73,-21.83,0,*41
1496408749.23,55443,20.63,74224.3,21.45,-23.39,-22.47,0,*44
1496408750.5,55444,20.63,74230.0,21.47,-22.37,-21.27,0,*4B
1496408751.74,55445,20.63,74230.0,21.47,-22.57,-21.47,0,*4A
1496408752.98,55446,20.63,74228.3,21.51,-23.75,-22.83,0,*44
1496408754.22,55447,20.63,74228.3,21.51,-23.09,-22.03,0,*46
1496408755.43,55448,20.63,74226.0,21.49,-22.97,-22.03,0,*46
1496408756.66,55449,20.63,74226.3,21.53,-22.21,-21.17,0,*47
1496408757.92,55450,20.63,74226.3,21.57,-22.37,-21.57,0,*48
1496408759.15,55451,20.63,74224.3,21.53,-25.71,-24.97,0,*41
1496408760.44,55452,20.63,74226.5,21.51,-26.55,-25.75,0,*48
1496408761.71,55453,20.56,74222.3,21.47,-26.81,-26.07,0,*41
1496408763.01,55454,20.63,74226.8,21.47,-27.61,-26.93,0,*44
1496408764.27,55455,20.63,74226.0,21.43,-27.77,-27.19,0,*45
1496408765.5,55456,20.63,74224.0,21.39,-27.77,-27.13,0,*41
1496408766.76,55457,20.63,74226.3,21.39,-27.83,-27.13,0,*4B
1496408768.0,55458,20.63,74226.5,21.35,-26.03,-25.13,0,*43
1496408769.29,55459,20.63,74226.5,21.35,-26.97,-26.17,0,*48
1496408770.54,55460,20.63,74228.0,21.29,-26.29,-25.45,0,*4E
1496408771.78,55461,20.63,74224.0,21.29,-26.13,-25.13,0,*45
1496408773.01,55462,20.63,74224.3,21.29,-26.87,-25.97,0,*47
1496408774.27,55463,20.63,74228.0,21.25,-25.75,-24.87,0,*44
1496408775.54,55464,20.63,74226.3,21.27,-24.05,-23.19,0,*47
1496408776.78,55465,20.63,74224.3,21.25,-24.05,-23.23,0,*4D
1496408778.07,55466,20.63,74226.8,21.27,-23.99,-23.19,0,*47
1496408779.35,55467,20.63,74230.5,21.27,-23.03,-21.83,0,*44
1496408780.62,55468,20.63,74228.0,21.31,-21.87,-21.09,0,*40
1496408781.9,55469,20.63,74228.0,21.31,-22.31,-21.33,0,*46
1496408783.15,55470,20.63,74224.8,21.31,-24.35,-23.43,0,*49
1496408784.36,55471,20.63,74226.8,21.37,-22.93,-21.93,0,*4B
1496408785.59,55472,20.63,74226.5,21.35,-25.19,-24.47,0,*43
1496408786.84,55473,20.63,74226.3,21.35,-25.19,-24.15,0,*45
1496408788.12,55474,20.63,74224.8,21.35,-24.67,-23.69,0,*46
1496408789.37,55475,20.63,74228.3,21.35,-24.97,-23.99,0,*47
1496408790.62,55476,20.63,74224.3,21.35,-25.45,-24.51,0,*49
1496408791.89,55477,20.63,74226.5,21.31,-24.11,-23.43,0,*48
1496408793.15,55478,20.63,74224.8,21.35,-23.33,-22.27,0,*47
1496408794.41,55479,20.63,74224.8,21.35,-22.77,-21.77,0,*41
1496408795.65,55480,20.63,74224.0,21.37,-22.63,-21.67,0,*41
1496408796.85,55481,20.63,74224.5,21.37,-22.27,-21.43,0,*46
1496408798.09,55482,20.63,74228.0,21.39,-23.43,-22.57,0,*4E
1496408799.31,55483,20.63,74230.3,21.41,-25.91,-25.09,0,*45
1496408800.55,55484,20.63,74230.0,21.39,-23.43,-22.37,0,*4E
1496408801.84,55485,20.63,74224.0,21.39,-22.17,-21.23,0,*49
1496408803.08,55486,20.63,74230.0,21.39,-22.87,-22.03,0,*42
1496408804.29,55487,20.63,74228.5,21.41,-22.93,-22.03,0,*49
1496408805.53,55488,20.63,74228.5,21.43,-22.97,-22.11,0,*43
1496408806.74,55489,20.63,74224.0,21.45,-23.59,-22.93,0,*4D
1496408807.97,55490,20.63,74224.8,21.43,-25.23,-24.57,0,*46
1496408809.2,55491,20.63,74226.0,21.43,-27.51,-26.65,0,*43
1496408810.47,55492,20.63,74226.3,21.39,-27.55,-26.77,0,*4A
1496408811.7,55493,20.63,74224.8,21.35,-28.97,-28.31,0,*4A
1496408812.99,55494,20.63,74224.8,21.31,-28.09,-27.39,0,*49
1496408814.21,55495,20.63,74226.3,21.25,-27.29,-26.45,0,*4A
1496408815.47,55496,20.63,74220.5,21.25,-23.99,-23.03,0,*41
1496408816.76,55497,20.63,74224.5,21.27,-23.99,-23.19,0,*49
1496408817.97,55498,20.63,74226.5,21.25,-26.49,-25.87,0,*4D
1496408819.23,55499,20.63,74224.3,21.25,-26.93,-26.29,0,*4C
1496408820.48,55500,20.63,74220.5,21.23,-29.01,-28.53,0,*4C
1496408821.68,55501,20.63,74222.8,21.17,-27.93,-27.13,0,*44
1496408822.96,55502,20.63,74220.5,21.19,-26.77,-25.97,0,*4C
1496408824.21,55503,20.63,74222.0,21.15,-24.25,-23.39,0,*46
1496408825.46,55504,20.63,74220.5,21.19,-23.33,-22.53,0,*40
1496408826.71,55505,20.63,74228.0,21.17,-24.21,-23.49,0,*41
1496408827.94,55506,20.63,74224.5,21.17,-24.51,-23.85,0,*45
1496408829.2,55507,20.63,74226.0,21.19,-25.75,-25.09,0,*4F
1496408830.45,55508,20.63,74224.5,21.17,-25.97,-25.45,0,*4A
1496408831.67,55509,20.63,74224.5,21.17,-26.03,-25.45,0,*45
1496408832.89,55510,20.63,74226.0,21.13,-27.39,-26.87,0,*4C
1496408834.12,55511,20.63,74224.8,21.13,-26.17,-25.49,0,*41
1496408835.35,55512,20.63,74224.5,21.13,-26.17,-25.49,0,*42
1496408836.57,55513,20.63,74226.0,21.07,-25.61,-24.77,0,*48
1496408837.84,55514,20.63,74226.0,21.11,-24.87,-23.99,0,*46
1496408839.12,55515,20.63,74222.5,21.11,-22.77,-21.83,0,*47
1496408840.34,55516,20.63,74226.3,21.13,-23.69,-22.87,0,*4F
1496408841.53,55517,20.63,74224.3,21.13,-26.07,-25.23,0,*4A
1496408842.79,55518,20.63,74226.5,21.13,-24.21,-23.23,0,*45
1496408844.03,55519,20.63,74224.0,21.15,-22.73,-22.27,0,*46
1496408845.28,55520,20.63,74226.5,21.13,-24.25,-23.53,0,*4D
1496408846.53,55521,20.63,74224.5,21.15,-24.05,-23.23,0,*4F
1496408847.78,55522,20.63,74224.0,21.15,-24.21,-23.39,0,*41
1496408848.97,55523,20.63,74224.3,21.13,-25.19,-24.51,0,*45
1496408850.23,55524,20.63,74224.3,21.13,-26.33,-25.55,0,*4C
1496408851.43,55525,20.63,74228.0,21.13,-25.87,-25.19,0,*49
1496408852.67,55526,20.63,74226.8,21.07,-25.97,-25.19,0,*4E
1496408853.93,55527,20.63,74224.8,21.07,-24.11,-23.09,0,*47
1496408855.17,55528,20.63,74228.5,21.07,-24.93,-24.21,0,*4F
1496408856.39,55529,20.63,74226.8,21.07,-23.79,-22.97,0,*46
1496408857.67,55530,20.63,74226.8,21.11,-25.03,-24.25,0,*4D
1496408858.95,55531,20.63,74226.8,21.11,-23.29,-22.47,0,*40
1496408860.2,55532,20.63,74224.3,21.11,-22.63,-21.87,0,*43
1496408861.42,55533,20.63,74226.3,21.13,-23.89,-23.23,0,*49
1496408862.65,55534,20.63,74224.5,21.13,-24.71,-23.59,0,*43
1496408863.87,55535,20.63,74224.0,21.13,-23.85,-22.97,0,*4D
1496408865.1,55536,20.63,74228.0,21.15,-24.35,-23.59,0,*47
1496408866.36,55537,20.63,74226.8,21.15,-23.69,-22.77,0,*45
1496408867.59,55538,20.63,74226.3,21.15,-22.57,-21.63,0,*40
1496408868.84,55539,20.63,74226.0,21.15,-23.13,-22.17,0,*40
1496408870.08,55540,20.63,74226.0,21.15,-22.63,-21.67,0,*4C
1496408871.31,55541,20.63,74230.3,21.19,-22.53,-21.73,0,*47
1496408872.55,55542,20.63,74230.5,21.19,-23.33,-22.53,0,*42
1496408873.77,55543,20.63,74228.5,21.19,-22.87,-22.07,0,*4C
1496408875.04,55544,20.63,74228.5,21.19,-23.33,-22.31,0,*40
1496408876.28,55545,20.63,74224.3,21.21,-24.15,-23.29,0,*41
1496408877.57,55546,20.63,74226.8,21.23,-24.21,-23.23,0,*4D
1496408878.76,55547,20.63,74226.8,21.21,-24.57,-23.75,0,*4C
1496408879.98,55548,20.63,74224.3,21.21,-24.77,-24.11,0,*44
1496408881.17,55549,20.63,74230.5,21.21,-26.61,-25.91,0,*49
1496408882.4,55550,20.63,74228.8,21.17,-27.07,-26.29,0,*45
1496408883.64,55551,20.63,74230.0,21.13,-27.83,-26.97,0,*49
1496408884.85,55552,20.63,74230.5,21.13,-26.03,-25.23,0,*4F
1496408886.09,55553,20.63,74228.5,21.11,-25.61,-24.87,0,*44
1496408887.32,55554,20.63,74230.0,21.07,-25.91,-25.09,0,*4C
1496408888.56,55555,20.63,74228.0,21.07,-26.61,-25.81,0,*41
1496408889.82,55556,20.63,74228.5,21.07,-26.29,-25.61,0,*40
1496408891.03,55557,20.63,74226.8,21.05,-26.23,-25.55,0,*4E
1496408892.26,55558,20.63,74226.0,21.03,-26.03,-25.23,0,*44
1496408893.48,55559,20.63,74226.3,21.03,-25.19,-24.57,0,*4F
1496408894.76,55560,20.69,74230.3,21.03,-25.55,-25.03,0,*4D
1496408896.01,55561,20.63,74226.0,20.99,-27.83,-27.29,0,*4D